Weather History for Salina, KS

Change the Weather History Date:

Friday, October 26, 2012

  Actual Average Record
Temperature  
Mean Temperature 38 °F 54 °F  
Max Temperature 46 °F 65 °F 91 °F (1939)
Min Temperature 30 °F 42 °F 20 °F (1898)
Degree Days  
Heating Degree Days 27 12  
Month to date heating degree days 218 205  
Since 1 July heating degree days 253 257  
Cooling Degree Days 0 0  
Month to date cooling degree days 14 32  
Year to date cooling degree days 2051 1644  
Moisture  
Dew Point 25 °F    
Average Humidity 60    
Maximum Humidity 75    
Minimum Humidity 45    
Precipitation  
Precipitation T in 0.05 in 1.24 in (1976)
Month to date precipitation 1.19 2.01  
Year to date precipitation 17.58 29.05  
Sea Level Pressure  
Sea Level Pressure 30.48 in    
Wind  
Wind Speed 10 mph (North)    
Max Wind Speed 21 mph    
Max Gust Speed 25 mph    
Visibility 10 miles    
Events Snow    
T = Trace of Precipitation, MM = Missing Value Source: NWS Daily Summary

Daily Weather History Graph

Daily Weather History Graph

Search for Another Location

Airport:

Trip Planner

Search our weather history database for the weather conditions in past years. The results will help you decide how hot, cold, wet, or windy it might be!

Date:

Astronomy

Oct. 26, 2012 Rise Set
Actual Time 7:51 AM CDT 6:36 PM CDT
Civil Twilight 7:24 AM CDT 7:03 PM CDT
Nautical Twilight 6:53 AM CDT 7:35 PM CDT
Astronomical Twilight 6:22 AM CDT 8:06 PM CDT
Moon 4:52 PM CDT (10/26) 4:50 AM CDT (10/26)
Length of Visible Light 11h 39m
Length of Day
10h 44m
Waxing Gibbous, 91% of the Moon is Illuminated
Oct 26
Waxing Gibbous
Oct 29
Full
Nov 6
Last Quarter
Nov 13
New
Nov 20
First Quarter

Hourly Weather History & Observations

Time (CDT) Temp. Windchill Dew Point Humidity Pressure Visibility Wind Dir Wind Speed Gust Speed Precip Events Conditions
12:53 AM 35.6 °F 25.9 °F 26.6 °F 70% 30.38 in 10.0 mi North 16.1 mph - N/A   Overcast
1:53 AM 36.0 °F 27.1 °F 26.1 °F 67% 30.41 in 10.0 mi North 13.8 mph - N/A   Overcast
2:53 AM 36.0 °F 26.0 °F 26.1 °F 67% 30.42 in 10.0 mi North 17.3 mph - N/A   Overcast
3:53 AM 36.0 °F 27.5 °F 25.0 °F 64% 30.42 in 10.0 mi NNE 12.7 mph - N/A   Overcast
4:53 AM 35.1 °F 24.1 °F 25.0 °F 67% 30.44 in 10.0 mi North 19.6 mph 25.3 mph 0.00 in Snow Light Snow
5:53 AM 35.1 °F 25.2 °F 25.0 °F 67% 30.46 in 10.0 mi North 16.1 mph - 0.00 in   Overcast
6:53 AM 33.1 °F 23.9 °F 25.0 °F 72% 30.48 in 10.0 mi North 12.7 mph - N/A   Mostly Cloudy
7:24 AM 32.0 °F 23.6 °F 24.8 °F 75% 30.46 in 10.0 mi North 10.4 mph - N/A   Partly Cloudy
7:53 AM 32.0 °F 23.6 °F 25.0 °F 75% 30.51 in 10.0 mi North 10.4 mph - N/A   Clear
8:53 AM 34.0 °F 25.0 °F 26.1 °F 73% 30.53 in 10.0 mi NNW 12.7 mph - N/A   Clear
9:53 AM 37.4 °F 29.3 °F 26.6 °F 65% 30.53 in 10.0 mi North 12.7 mph 21.9 mph N/A   Clear
10:53 AM 37.9 °F 29.2 °F 25.0 °F 60% 30.58 in 10.0 mi North 15.0 mph - N/A   Clear
11:53 AM 39.9 °F 33.9 °F 25.0 °F 55% 30.58 in 10.0 mi North 9.2 mph - N/A   Mostly Cloudy
12:53 PM 42.1 °F 36.6 °F 25.0 °F 51% 30.55 in 10.0 mi North 9.2 mph - N/A   Overcast
1:53 PM 45.0 °F 40.6 °F 26.1 °F 48% 30.51 in 10.0 mi NNW 8.1 mph - N/A   Scattered Clouds
2:53 PM 45.0 °F 39.3 °F 25.0 °F 46% 30.49 in 10.0 mi NNW 11.5 mph 20.7 mph N/A   Clear
3:53 PM 45.0 °F 39.3 °F 25.0 °F 46% 30.48 in 10.0 mi North 11.5 mph 20.7 mph N/A   Clear
4:53 PM 45.0 °F 39.3 °F 24.1 °F 44% 30.47 in 10.0 mi NNW 11.5 mph - N/A   Clear
5:53 PM 43.0 °F 36.4 °F 24.1 °F 47% 30.45 in 10.0 mi North 12.7 mph - N/A   Clear
6:53 PM 39.0 °F 32.8 °F 25.0 °F 57% 30.47 in 10.0 mi North 9.2 mph - N/A   Clear
7:53 PM 37.9 °F 33.5 °F 26.1 °F 62% 30.47 in 10.0 mi NNW 5.8 mph - N/A   Clear
8:53 PM 36.0 °F 30.3 °F 25.0 °F 64% 30.47 in 10.0 mi NNW 6.9 mph - N/A   Clear
9:53 PM 34.0 °F 29.8 °F 25.0 °F 70% 30.47 in 10.0 mi North 4.6 mph - N/A   Clear
10:53 PM 32.0 °F 27.5 °F 24.1 °F 73% 30.48 in 10.0 mi NW 4.6 mph - N/A   Clear
11:53 PM 32.0 °F - 24.1 °F 73% 30.46 in 10.0 mi Calm Calm - N/A   Clear